[[{"header":{"parameterUnit":"m.s-1","parameterCategory":2,"la1":30.2991,"la2":30.254,"lo1":-89.0895,"lo2":-89.0444,"dy":0.0017,"dx":0.0017,"nx":28,"ny":28,"refTime":"2025-01-04T09:00:00:Z","depth":"0","parameterNumber":2,"parameterNumberName":"U-component_of_CURRENTS"},"data":[0,0,0,0,0,0,0,0,0,0,0,0,0,0,0,0,0,0,0,0,0,0,0,0,0,0,0,0,0,0,0,0,0,0,0,0,0,0,0,0,0,0,0,0,0,0,0,0,0,0,0,0,0,0,0,0,0,0,0.1958,0.1958,0,0.1957,0.1957,0.1957,0.1949,0.1949,0.1949,0.1949,0.1939,0.1938,0.1938,0,0,0,0,0,0,0,0,0,0,0,0,0,0.1978,0.1977,0.1958,0.1958,0.1958,0.1957,0.1957,0.1957,0.1949,0.1949,0.1949,0.1949,0.1939,0.1939,0.1938,0,0,0,0,0,0,0,0,0,0,0,0,0,0.1971,0.1977,0.1958,0.1955,0.1955,0.1957,0.1957,0.1957,0.1949,0.1949,0.1949,0.1948,0.1939,0.1939,0.1938,0.1941,0,0,0.1938,0.1938,0,0,0,0,0,0,0,0,0.1972,0.1971,0.1955,0.1955,0.1955,0.1954,0.196,0.1951,0.1949,0.195,0.1949,0.1948,0.1943,0.1943,0.1942,0.194,0.194,0.1938,0.1937,0.1937,0.1937,0,0,0,0,0,0,0,0.1972,0.1971,0.1957,0.1955,0.1955,0.1962,0.196,0.1959,0.1947,0.195,0.195,0.1951,0.1943,0.1942,0.1942,0.194,0.1938,0.1937,0.1937,0.1937,0.1984,0.1985,0,0,0,0,0,0,0.1973,0.1971,0.1957,0.1957,0.1964,0.1961,0.196,0.1954,0.1947,0.1947,0.1951,0.1951,0.1943,0.1942,0.1941,0.1976,0.1937,0.1937,0.1937,0.1983,0.1984,0.1986,0,0,0,0,0,0,0.1973,0.1971,0.1957,0.1965,0.1964,0.1961,0.1954,0.1954,0.1955,0.1948,0.1947,0.1953,0.1943,0.1942,0.1952,0.1974,0.1937,0.1937,0.1981,0.1983,0.1985,0.2024,0,0,0,0,0,0,0.1973,0.1971,0.1968,0.1965,0.1963,0.1963,0.1955,0.1954,0.1956,0.1955,0.195,0.1949,0.1942,0.1952,0.1952,0.1973,0.1937,0.1979,0.1982,0.1984,0.2021,0.2027,0.2033,0,0,0,0,0,0.1974,0.197,0.1968,0.1966,0.1958,0.1963,0.1963,0.196,0.1957,0.196,0.1962,0.1949,0.1969,0.1953,0.1952,0.1974,0.1978,0.1981,0.1984,0.2019,0.2026,0.2033,0,0,0,0,0,0,0.1976,0.1969,0.1966,0.1959,0.1964,0.1962,0.1965,0.1963,0.1967,0.1967,0.196,0.1959,0.198,0.1973,0.1956,0.1998,0.1974,0.1977,0.2001,0.2008,0.2013,0.2036,0.1937,0,0,0,0,0,0.1976,0.197,0.1969,0.1965,0.1968,0.1967,0.1969,0.1969,0.1971,0.1972,0.1969,0.1975,0.1992,0.1995,0.2002,0.2018,0.2039,0.2035,0.2041,0.2045,0.2065,0.2132,0.2146,0.1996,0.1996,0.1996,0,0,0.1975,0.1971,0.1967,0.1966,0.1967,0.1977,0.1968,0.1973,0.1987,0.1971,0.1986,0.1992,0.2001,0.2025,0.2034,0.202,0.2095,0.2049,0.2053,0.2071,0.2137,0.2152,0.2165,0.1998,0.1998,0.1997,0,0,0.1975,0.197,0.1967,0.1974,0.1979,0.1984,0.1988,0.199,0.1998,0.201,0.2016,0.2041,0.2041,0.2068,0.208,0.2123,0.2124,0.2119,0.2163,0.2228,0.2241,0.2253,0.2278,0.2292,0.212,0.212,0.212,0,0.1973,0.1973,0.197,0.1975,0.1988,0.199,0.2004,0.2013,0.202,0.2042,0.2019,0.2074,0.207,0.2135,0.2147,0.2137,0.2161,0.2132,0.2236,0.2249,0.226,0.2284,0.2299,0.2122,0.2122,0.2122,0.2122,0,0.1977,0.1981,0.1984,0.1993,0.2007,0.2019,0.2037,0.2055,0.206,0.2075,0.213,0.2138,0.2179,0.2179,0.2171,0.2258,0.2243,0.2236,0.2218,0.2278,0.2298,0.2313,0.2126,0.2125,0.2124,0.2124,0,0,0.1958,0.198,0.1982,0.1996,0.202,0.2032,0.2071,0.2112,0.2146,0.2162,0.2216,0.2252,0.2268,0.2285,0.2292,0.2338,0.242,0.2321,0.2324,0.2346,0.2545,0.2474,0.2483,0.2436,0.2439,0.2442,0.2518,0,0.1963,0.1982,0.1995,0.2026,0.2043,0.2072,0.2108,0.2149,0.2179,0.2227,0.2272,0.2311,0.2307,0.2324,0.2384,0.2412,0.2466,0.2399,0.2486,0.2488,0.2418,0.2501,0.2399,0.2455,0.2533,0.2535,0.2537,0,0.1962,0.198,0.2007,0.2054,0.2065,0.2082,0.2155,0.2186,0.2263,0.2288,0.2361,0.2387,0.2473,0.2443,0.2567,0.2526,0.2551,0.2564,0.2568,0.2505,0.2446,0.2413,0.2479,0.2451,0.256,0.2558,0.2556,0,0.1955,0.1989,0.2015,0.2028,0.2078,0.2103,0.2133,0.2205,0.2251,0.2328,0.2382,0.2473,0.2532,0.2594,0.2637,0.261,0.2753,0.2716,0.2681,0.2674,0.2607,0.2589,0.2659,0.2817,0.2817,0.2817,0.2816,0,0.1955,0.1974,0.2009,0.2021,0.2057,0.2096,0.2147,0.219,0.2277,0.2334,0.2416,0.2485,0.2579,0.2666,0.2681,0.2736,0.2802,0.2715,0.2708,0.2613,0.2595,0.2581,0.2553,0.282,0.2819,0.2818,0.2818,0,0.1938,0.1961,0.1988,0.2036,0.2048,0.2071,0.2141,0.2182,0.2273,0.2357,0.2388,0.253,0.2621,0.2705,0.2795,0.2795,0.2751,0.2832,0.2692,0.2667,0.2564,0.254,0.2457,0.2374,0.2796,0.2795,0.2795,0,0.1928,0.1939,0.1982,0.1991,0.2005,0.2044,0.207,0.2156,0.2201,0.2366,0.2402,0.2544,0.2604,0.2733,0.2745,0.2779,0.2718,0.2709,0.2638,0.2572,0.2542,0.2403,0.2329,0.2558,0.2556,0.2553,0.2552,0,0.1909,0.1922,0.1942,0.1959,0.1976,0.2004,0.2046,0.2084,0.2186,0.227,0.2361,0.2425,0.2561,0.2562,0.2639,0.2637,0.2561,0.2661,0.2655,0.2422,0.2217,0.2127,0.247,0.2532,0.2534,0.2535,0.2536,0.2537,0.1887,0.189,0.1908,0.1918,0.1935,0.1941,0.1936,0.1991,0.2043,0.2127,0.2234,0.2296,0.2411,0.2486,0.2481,0.2449,0.24,0.2396,0.239,0.2268,0.2134,0.241,0.2421,0.2422,0.2423,0.2424,0.2425,0,0.1851,0.1856,0.1865,0.1862,0.1847,0.1878,0.1898,0.1878,0.1883,0.1982,0.2034,0.213,0.2171,0.2261,0.2302,0.223,0.2088,0.2178,0.1999,0.1953,0.228,0.2219,0.211,0.211,0.211,0.211,0.211,0.211,0.1833,0.1821,0.182,0.1769,0.1761,0.1711,0.1699,0.1683,0.172,0.1744,0.1791,0.1869,0.2058,0.217,0.2154,0.2096,0.1944,0.1812,0.1814,0.211,0.213,0.215,0.2089,0.1955,0.1954,0.1386,0.1382,0.1379]},{"header":{"parameterUnit":"m.s-1","parameterCategory":2,"la1":30.2991,"la2":30.254,"lo1":-89.0895,"lo2":-89.0444,"dy":0.0017,"dx":0.0017,"nx":28,"ny":28,"refTime":"2025-01-04T09:00:00:Z","depth":"0","parameterNumber":3,"parameterNumberName":"V-component_of_CURRENTS"},"data":[0,0,0,0,0,0,0,0,0,0,0,0,0,0,0,0,0,0,0,0,0,0,0,0,0,0,0,0,0,0,0,0,0,0,0,0,0,0,0,0,0,0,0,0,0,0,0,0,0,0,0,0,0,0,0,0,0,0,0.0126,0.0125,0,0.0076,0.0076,0.0075,0.0037,0.0037,0.0036,0.0036,-0.0035,-0.0037,-0.0039,0,0,0,0,0,0,0,0,0,0,0,0,0,0.0163,0.0162,0.0126,0.0125,0.0125,0.0076,0.0076,0.0075,0.0037,0.0037,0.0036,0.0036,-0.0035,-0.0037,-0.0039,0,0,0,0,0,0,0,0,0,0,0,0,0,0.0132,0.0162,0.0126,0.0101,0.0099,0.0077,0.0076,0.0075,0.0037,0.0037,0.0036,0.0036,-0.0034,-0.0037,-0.0039,-0.0049,0,0,-0.0047,-0.0048,0,0,0,0,0,0,0,0,0.0134,0.013,0.0105,0.0103,0.01,0.0064,0.0062,0.0033,0.0037,0.0059,0.0036,0.0036,-0.0003,-0.0008,-0.0019,-0.0052,-0.0055,-0.0047,-0.0049,-0.005,-0.0051,0,0,0,0,0,0,0,0.0136,0.0132,0.0104,0.0105,0.0102,0.0084,0.008,0.0056,0.0029,0.0057,0.0054,0.0051,-0.0005,-0.0016,-0.0021,-0.0056,-0.0047,-0.005,-0.0051,-0.0052,-0.0088,-0.0088,0,0,0,0,0,0,0.0147,0.0134,0.0106,0.0103,0.0118,0.0084,0.0079,0.0074,0.0029,0.0023,0.0052,0.005,-0.0012,-0.0018,-0.0023,-0.0028,-0.005,-0.0052,-0.0054,-0.0089,-0.0088,-0.0088,0,0,0,0,0,0,0.0148,0.0145,0.0108,0.0119,0.0113,0.0084,0.0079,0.0074,0.0064,0.0026,0.0019,0.0049,-0.0012,-0.002,-0.0036,-0.0031,-0.0054,-0.0056,-0.009,-0.0089,-0.0088,-0.0043,0,0,0,0,0,0,0.0149,0.0145,0.0146,0.012,0.0113,0.01,0.008,0.0073,0.0064,0.0061,0.0021,0.0014,-0.0013,-0.0032,-0.0038,-0.0035,-0.0058,-0.009,-0.0089,-0.0088,-0.0045,-0.0041,-0.0037,0,0,0,0,0,0.015,0.0154,0.0146,0.0143,0.0115,0.0101,0.0096,0.0073,0.0064,0.0063,0.004,0.0015,-0.003,-0.0033,-0.0041,-0.0039,-0.0091,-0.009,-0.0088,-0.0047,-0.0042,-0.0037,0,0,0,0,0,0,0.017,0.015,0.0141,0.0138,0.0124,0.0095,0.0093,0.0078,0.0059,0.0057,0.0021,0.0012,-0.0,-0.0022,-0.0025,-0.0045,-0.0064,-0.0064,-0.003,-0.0025,-0.0021,-0.0018,-0.006,0,0,0,0,0,0.0176,0.0173,0.0152,0.015,0.0146,0.0121,0.0113,0.0099,0.0078,0.0069,0.0043,0.0019,-0.0001,-0.0014,-0.0036,-0.0047,-0.0067,-0.005,-0.0046,-0.0042,-0.0044,-0.0076,-0.0075,-0.0083,-0.0083,-0.0084,0,0,0.0182,0.0172,0.0169,0.0154,0.0141,0.014,0.0115,0.0107,0.0106,0.0065,0.0057,0.0032,-0.0,-0.0012,-0.002,-0.0031,-0.0044,-0.004,-0.0037,-0.0041,-0.0074,-0.0073,-0.0073,-0.0083,-0.0083,-0.0083,0,0,0.0199,0.0187,0.0191,0.0184,0.017,0.0157,0.0158,0.0135,0.0125,0.0113,0.0087,0.0065,0.0035,0.0011,-0.0004,0.001,-0.002,0.0008,0.0027,-0.0003,-0.0003,-0.0003,-0.0003,-0.0004,0.0008,0.0008,0.0008,0,0.0208,0.0211,0.0191,0.0196,0.0197,0.0169,0.0179,0.0163,0.0138,0.0132,0.0118,0.0075,0.0044,0.0028,0.003,0.0018,0.0007,0.001,0.0002,0.0001,-0.0,-0.0001,-0.0002,0.001,0.001,0.001,0.001,0,0.0228,0.0232,0.0236,0.0234,0.0232,0.0236,0.0218,0.0211,0.0195,0.0175,0.0158,0.0117,0.009,0.0078,0.0054,0.0038,0.0036,0.0012,-0.0012,0.0003,0.0002,0.0,0.0014,0.0013,0.0012,0.0012,0,0,0.0248,0.025,0.0253,0.0265,0.0255,0.0259,0.0258,0.025,0.0255,0.0218,0.0223,0.017,0.0145,0.0126,0.0096,0.0063,0.0048,0.0036,0.0034,0.0036,0.0006,0.0019,0.0018,0.0021,0.002,0.002,0.0017,0,0.0272,0.0297,0.0289,0.0316,0.0331,0.0312,0.0318,0.0305,0.0287,0.0283,0.0233,0.022,0.0166,0.0159,0.0117,0.0073,0.0041,0.0053,-0.001,-0.0011,-0.0002,0.0015,0.0044,0.0044,0.0014,0.0014,0.0014,0,0.0296,0.0313,0.0344,0.0368,0.0374,0.0382,0.0393,0.0394,0.0371,0.0356,0.0324,0.029,0.025,0.0199,0.0117,0.013,0.0067,0.0022,0.0021,0.0012,-0.0003,0.0019,0.0041,-0.0035,0.001,0.001,0.001,0,0.0328,0.0354,0.0385,0.0391,0.0408,0.0418,0.0425,0.0412,0.0431,0.0402,0.0422,0.0351,0.0348,0.0246,0.0156,0.0135,0.0073,0.0033,-0.0015,-0.0013,-0.0012,-0.0009,-0.0075,-0.0043,-0.0043,-0.0043,-0.0043,0,0.0359,0.0384,0.0403,0.0419,0.0462,0.0457,0.0497,0.0484,0.0498,0.054,0.0465,0.0496,0.0356,0.0309,0.0193,0.0103,0.01,-0.0005,-0.0018,0.0009,0.0013,-0.0073,-0.0133,-0.0043,-0.0043,-0.0043,-0.0043,0,0.0386,0.0395,0.0435,0.0464,0.0476,0.0506,0.0556,0.0589,0.0588,0.0648,0.065,0.0617,0.0556,0.0424,0.0286,0.018,0.0021,0.0027,0.0085,0.0079,-0.0044,-0.0102,-0.0192,-0.0254,-0.0023,-0.0023,-0.0022,0,0.0401,0.0423,0.047,0.0503,0.0516,0.0564,0.0604,0.0623,0.0672,0.0734,0.0779,0.0747,0.0743,0.0562,0.0357,0.0173,0.0049,0.0071,0.0016,-0.004,-0.0115,-0.0159,-0.0208,0.0047,0.0048,0.0048,0.0049,0,0.0437,0.0449,0.0483,0.0547,0.0596,0.0664,0.0726,0.0785,0.0833,0.0901,0.0981,0.0986,0.0832,0.0674,0.042,0.0274,0.0019,0.0078,-0.0008,-0.0087,-0.0114,-0.018,0.0058,0.0054,0.0054,0.0054,0.0053,0.0053,0.0463,0.0493,0.0536,0.0597,0.0662,0.0754,0.082,0.0911,0.1016,0.1129,0.1131,0.1177,0.0955,0.062,0.0411,0.009,0.005,-0.0011,-0.0078,-0.0118,-0.0179,0.0088,0.0082,0.0081,0.0081,0.0081,0.008,0,0.05,0.053,0.0588,0.0665,0.0743,0.0772,0.0897,0.0978,0.1118,0.1238,0.131,0.1266,0.0974,0.0658,0.0226,-0.0013,-0.0132,-0.0141,-0.0206,-0.0255,-0.003,-0.0029,-0.0026,-0.0026,-0.0026,-0.0026,-0.0026,-0.0026,0.0523,0.0574,0.0599,0.0717,0.0778,0.0893,0.0969,0.1097,0.1208,0.1375,0.1448,0.148,0.1314,0.0528,0.0006,-0.0152,-0.0348,-0.0364,-0.048,-0.0324,-0.0317,-0.031,-0.0322,-0.0382,-0.0382,-0.0669,-0.0671,-0.0674]}],[{"header":{"parameterUnit":"m.s-1","parameterCategory":2,"la1":30.2991,"la2":30.254,"lo1":-89.0895,"lo2":-89.0444,"dy":0.0017,"dx":0.0017,"nx":28,"ny":28,"refTime":"2025-01-04T09:00:00:Z","depth":"2","parameterNumber":2,"parameterNumberName":"U-component_of_CURRENTS"},"data":[0,0,0,0,0,0,0,0,0,0,0,0,0,0,0,0,0,0,0,0,0,0,0,0,0,0,0,0,0,0,0,0,0,0,0,0,0,0,0,0,0,0,0,0,0,0,0,0,0,0,0,0,0,0,0,0,0,0,0.1941,0.1941,0,0.1944,0.1943,0.1943,0.1943,0.1943,0.1943,0.1943,0.1942,0.1942,0.1942,0,0,0,0,0,0,0,0,0,0,0,0,0,0.1956,0.1956,0.1941,0.1941,0.1941,0.1944,0.1943,0.1943,0.1943,0.1943,0.1943,0.1943,0.1942,0.1942,0.1942,0,0,0,0,0,0,0,0,0,0,0,0,0,0.1952,0.1956,0.1941,0.1942,0.1942,0.1944,0.1943,0.1943,0.1943,0.1943,0.1943,0.1943,0.1942,0.1942,0.1942,0.1939,0,0,0.1941,0.1941,0,0,0,0,0,0,0,0,0.1952,0.1951,0.1942,0.1942,0.1942,0.1944,0.1949,0.1942,0.1943,0.1941,0.1943,0.1943,0.1943,0.1943,0.1941,0.1939,0.1939,0.1941,0.1941,0.1941,0.1941,0,0,0,0,0,0,0,0.1953,0.1952,0.1941,0.1942,0.1942,0.195,0.1949,0.1947,0.1941,0.1942,0.1942,0.1944,0.1943,0.1942,0.1941,0.1939,0.1941,0.1941,0.1941,0.1941,0.1988,0.1989,0,0,0,0,0,0,0.1953,0.1952,0.1941,0.1941,0.1949,0.1949,0.1948,0.1942,0.1941,0.1941,0.1944,0.1944,0.1942,0.1942,0.1941,0.1981,0.1941,0.1941,0.1941,0.1987,0.1988,0.199,0,0,0,0,0,0,0.1953,0.1952,0.1941,0.1948,0.1947,0.1949,0.1942,0.1942,0.1947,0.1943,0.1943,0.1949,0.1942,0.1942,0.1957,0.1979,0.1941,0.1941,0.1985,0.1987,0.1989,0.2034,0,0,0,0,0,0,0.1954,0.1952,0.1951,0.1948,0.1947,0.1948,0.1942,0.1942,0.1948,0.1948,0.1947,0.1947,0.1942,0.1957,0.1957,0.1979,0.1941,0.1983,0.1986,0.1988,0.203,0.2037,0.2042,0,0,0,0,0,0.1954,0.1951,0.195,0.1949,0.1944,0.1948,0.1949,0.195,0.1949,0.1953,0.196,0.1947,0.1973,0.1958,0.1957,0.198,0.1982,0.1985,0.1988,0.2028,0.2036,0.2042,0,0,0,0,0,0,0.1958,0.1951,0.195,0.1945,0.195,0.1949,0.1953,0.1954,0.1961,0.1964,0.1959,0.1959,0.1982,0.1976,0.196,0.2002,0.1977,0.198,0.2008,0.2015,0.2021,0.2047,0.1941,0,0,0,0,0,0.1958,0.1952,0.1952,0.195,0.1953,0.1955,0.1957,0.1959,0.1964,0.1967,0.1967,0.1976,0.1993,0.1999,0.2006,0.2024,0.2044,0.2041,0.2047,0.2052,0.2074,0.2142,0.2157,0.1999,0.1999,0.1999,0,0,0.1959,0.1954,0.1952,0.1951,0.1954,0.1964,0.1956,0.1964,0.1979,0.1966,0.1986,0.1992,0.2002,0.2028,0.2038,0.2026,0.2101,0.2055,0.206,0.2079,0.2147,0.2163,0.2176,0.2001,0.2001,0.2001,0,0,0.196,0.1956,0.1954,0.1961,0.1968,0.1972,0.1977,0.1981,0.1991,0.2007,0.2014,0.2043,0.2044,0.2074,0.2085,0.2129,0.2129,0.2123,0.2175,0.2241,0.2255,0.2267,0.2286,0.23,0.2127,0.2128,0.2128,0,0.196,0.196,0.1957,0.1963,0.1978,0.1979,0.1994,0.2004,0.2014,0.2041,0.2018,0.2077,0.2073,0.2144,0.2157,0.2145,0.2167,0.2144,0.225,0.2263,0.2275,0.2292,0.2307,0.213,0.213,0.213,0.2129,0,0.1963,0.197,0.1973,0.1982,0.1997,0.201,0.2029,0.2049,0.2057,0.2075,0.2136,0.2145,0.219,0.2188,0.2182,0.2273,0.2254,0.2248,0.2233,0.2294,0.2307,0.2322,0.2134,0.2133,0.2132,0.2131,0,0,0.1947,0.1969,0.1972,0.1988,0.2013,0.2024,0.2065,0.2111,0.2148,0.2169,0.2229,0.2267,0.2287,0.2305,0.2311,0.2361,0.2444,0.2343,0.2345,0.2363,0.2566,0.2472,0.2478,0.2462,0.2465,0.2468,0.2531,0,0.1953,0.1975,0.1988,0.202,0.2038,0.2068,0.2107,0.2153,0.2185,0.2238,0.2288,0.233,0.2328,0.2346,0.2411,0.2436,0.249,0.2426,0.2504,0.2506,0.2417,0.2495,0.228,0.2312,0.2545,0.2548,0.2549,0,0.1952,0.1972,0.2004,0.2052,0.2064,0.2082,0.2161,0.2193,0.2277,0.2306,0.2386,0.2412,0.2504,0.2472,0.2597,0.2558,0.2579,0.259,0.2593,0.2507,0.2441,0.2295,0.233,0.2574,0.2572,0.257,0.2568,0,0.1947,0.1983,0.2013,0.2027,0.2079,0.2109,0.2139,0.2217,0.2266,0.2348,0.2403,0.2503,0.256,0.2624,0.2662,0.2638,0.2775,0.274,0.2679,0.267,0.2505,0.2476,0.2841,0.2841,0.2841,0.2841,0.2841,0,0.1949,0.197,0.2008,0.2023,0.2062,0.2103,0.2158,0.2204,0.2295,0.2355,0.244,0.2506,0.2607,0.269,0.2704,0.2743,0.2822,0.2712,0.27,0.2508,0.248,0.2722,0.2708,0.2843,0.2843,0.2842,0.2842,0,0.1933,0.196,0.1989,0.2042,0.2055,0.208,0.215,0.2193,0.2288,0.2373,0.2404,0.2546,0.2626,0.271,0.2797,0.2794,0.2821,0.2812,0.2556,0.2513,0.2655,0.2642,0.275,0.2747,0.2745,0.2744,0.2742,0,0.1926,0.194,0.1985,0.1995,0.2011,0.2051,0.2079,0.2167,0.2212,0.2376,0.2411,0.2541,0.2584,0.2694,0.269,0.2708,0.2783,0.2528,0.2448,0.2679,0.2656,0.2646,0.2636,0.2233,0.2228,0.2223,0.222,0,0.191,0.1924,0.1946,0.1965,0.1983,0.2009,0.2051,0.2088,0.2192,0.2271,0.2352,0.24,0.25,0.2419,0.2469,0.2447,0.2502,0.2436,0.2785,0.2283,0.2195,0.2171,0.2178,0.218,0.2184,0.2187,0.2189,0.2191,0.1888,0.1892,0.1913,0.1922,0.1942,0.1946,0.1938,0.1987,0.2034,0.2098,0.2193,0.2191,0.2235,0.2175,0.212,0.2099,0.2272,0.2184,0.2196,0.2214,0.2137,0.205,0.1991,0.1993,0.1996,0.1998,0.2,0,0.1855,0.1857,0.1867,0.1867,0.1854,0.1887,0.1902,0.187,0.1861,0.1917,0.1937,0.1784,0.1735,0.1786,0.169,0.1703,0.1676,0.1634,0.1585,0.1627,0.1663,0.1557,0.1257,0.1254,0.1252,0.125,0,0,0.1834,0.1824,0.182,0.177,0.1767,0.1715,0.1698,0.166,0.1662,0.1592,0.1559,0.1651,0.1732,0.1466,0.1442,0.1333,0.1463,0.1275,0.1876,0.1861,0.1894,0.1992,0.1877,0,0,0,0,0]},{"header":{"parameterUnit":"m.s-1","parameterCategory":2,"la1":30.2991,"la2":30.254,"lo1":-89.0895,"lo2":-89.0444,"dy":0.0017,"dx":0.0017,"nx":28,"ny":28,"refTime":"2025-01-04T09:00:00:Z","depth":"2","parameterNumber":3,"parameterNumberName":"V-component_of_CURRENTS"},"data":[0,0,0,0,0,0,0,0,0,0,0,0,0,0,0,0,0,0,0,0,0,0,0,0,0,0,0,0,0,0,0,0,0,0,0,0,0,0,0,0,0,0,0,0,0,0,0,0,0,0,0,0,0,0,0,0,0,0,0.0029,0.0029,0,-0.0019,-0.002,-0.0021,-0.0053,-0.0053,-0.0053,-0.0054,-0.0121,-0.0123,-0.0125,0,0,0,0,0,0,0,0,0,0,0,0,0,0.0066,0.0066,0.0029,0.0029,0.0029,-0.0019,-0.002,-0.0021,-0.0053,-0.0053,-0.0054,-0.0054,-0.0121,-0.0123,-0.0125,0,0,0,0,0,0,0,0,0,0,0,0,0,0.0036,0.0065,0.003,0.0008,0.0006,-0.0019,-0.002,-0.0021,-0.0053,-0.0053,-0.0054,-0.0054,-0.012,-0.0122,-0.0125,-0.0139,0,0,-0.0133,-0.0134,0,0,0,0,0,0,0,0,0.0037,0.0034,0.0012,0.0009,0.0007,-0.0029,-0.0032,-0.0061,-0.0053,-0.0033,-0.0054,-0.0054,-0.0091,-0.0096,-0.0107,-0.0142,-0.0145,-0.0133,-0.0135,-0.0136,-0.0137,0,0,0,0,0,0,0,0.004,0.0036,0.0008,0.0011,0.0008,-0.0009,-0.0013,-0.0038,-0.0062,-0.0035,-0.0037,-0.0039,-0.0092,-0.0104,-0.0109,-0.0146,-0.0133,-0.0135,-0.0137,-0.0138,-0.0179,-0.0178,0,0,0,0,0,0,0.0051,0.0038,0.001,0.0007,0.0024,-0.0009,-0.0014,-0.0019,-0.0062,-0.0068,-0.0039,-0.0041,-0.01,-0.0106,-0.0111,-0.0113,-0.0136,-0.0138,-0.014,-0.0179,-0.0178,-0.0178,0,0,0,0,0,0,0.0052,0.0049,0.0012,0.0023,0.0017,-0.0009,-0.0014,-0.002,-0.0027,-0.0065,-0.0071,-0.004,-0.01,-0.0108,-0.0122,-0.0116,-0.0139,-0.0142,-0.018,-0.0179,-0.0178,-0.0127,0,0,0,0,0,0,0.0053,0.0049,0.0051,0.0024,0.0017,0.0004,-0.0014,-0.002,-0.0028,-0.003,-0.0068,-0.0075,-0.0101,-0.0118,-0.0125,-0.012,-0.0144,-0.018,-0.0179,-0.0178,-0.013,-0.0125,-0.0121,0,0,0,0,0,0.0054,0.0057,0.0051,0.0048,0.002,0.0005,-0.0,-0.0021,-0.0027,-0.0028,-0.0049,-0.0073,-0.0117,-0.012,-0.0128,-0.0124,-0.0181,-0.0179,-0.0178,-0.0132,-0.0126,-0.0121,0,0,0,0,0,0,0.0074,0.0054,0.0046,0.0043,0.0029,0.0,-0.0002,-0.0015,-0.0033,-0.0033,-0.0068,-0.0076,-0.0088,-0.011,-0.0112,-0.0132,-0.0153,-0.0153,-0.0114,-0.0109,-0.0105,-0.01,-0.0146,0,0,0,0,0,0.008,0.0077,0.0056,0.0054,0.005,0.0027,0.0019,0.0006,-0.0013,-0.0022,-0.0046,-0.007,-0.0091,-0.0102,-0.0125,-0.0136,-0.0156,-0.0138,-0.0134,-0.013,-0.0131,-0.0161,-0.0159,-0.0174,-0.0174,-0.0174,0,0,0.0087,0.0076,0.0074,0.0059,0.0046,0.0045,0.0021,0.0015,0.0015,-0.0026,-0.0032,-0.0057,-0.009,-0.0101,-0.0109,-0.0119,-0.0131,-0.0128,-0.0125,-0.0128,-0.016,-0.0158,-0.0157,-0.0174,-0.0174,-0.0174,0,0,0.0103,0.0092,0.0096,0.0089,0.0077,0.0062,0.0065,0.0043,0.0034,0.0024,-0.0003,-0.0022,-0.0053,-0.0076,-0.0092,-0.0077,-0.0107,-0.0082,-0.0057,-0.0086,-0.0085,-0.0085,-0.0085,-0.0085,-0.0079,-0.0079,-0.0079,0,0.0113,0.0116,0.0096,0.0101,0.0103,0.0075,0.0087,0.0071,0.0047,0.0044,0.003,-0.0012,-0.0044,-0.0057,-0.0055,-0.0069,-0.008,-0.0074,-0.0081,-0.0081,-0.0081,-0.0082,-0.0083,-0.0077,-0.0077,-0.0077,-0.0077,0,0.0132,0.0137,0.0141,0.014,0.0138,0.0143,0.0125,0.0121,0.0107,0.0089,0.0074,0.0033,0.0008,-0.0005,-0.0029,-0.0042,-0.0045,-0.0071,-0.0093,-0.0077,-0.0078,-0.008,-0.0073,-0.0074,-0.0075,-0.0075,0,0,0.0152,0.0155,0.0158,0.0172,0.0163,0.0167,0.0168,0.0163,0.017,0.0136,0.0145,0.0093,0.0069,0.005,0.0019,-0.0011,-0.0022,-0.0039,-0.0042,-0.0037,-0.0063,-0.006,-0.0062,-0.0051,-0.0051,-0.0052,-0.0054,0,0.0176,0.0202,0.0194,0.0224,0.0239,0.0223,0.0231,0.0221,0.0205,0.0205,0.0157,0.0146,0.0092,0.0085,0.0046,0.0001,-0.0028,-0.0018,-0.0082,-0.0083,-0.0082,-0.0065,-0.0058,-0.006,-0.0056,-0.0056,-0.0056,0,0.02,0.0218,0.0252,0.0279,0.0285,0.0294,0.0311,0.0313,0.0295,0.0283,0.0254,0.0221,0.0184,0.0131,0.0052,0.0064,0.0001,-0.0044,-0.0045,-0.0065,-0.0085,-0.0081,-0.0063,-0.006,-0.006,-0.0059,-0.0059,0,0.0233,0.0261,0.0294,0.0302,0.0321,0.0335,0.0343,0.0335,0.0356,0.0331,0.0352,0.0286,0.0282,0.0183,0.0091,0.0071,0.0009,-0.003,-0.0087,-0.0086,-0.0105,-0.0105,-0.0103,-0.0103,-0.0103,-0.0103,-0.0103,0,0.0264,0.0292,0.0313,0.0332,0.0378,0.0375,0.0419,0.0409,0.0426,0.047,0.0397,0.0426,0.0291,0.0244,0.0128,0.0034,0.0036,-0.0077,-0.0091,-0.0084,-0.0082,-0.0111,-0.0112,-0.0103,-0.0103,-0.0103,-0.0103,0,0.0292,0.0303,0.0346,0.0379,0.0393,0.0425,0.0477,0.0512,0.0515,0.0575,0.0578,0.0544,0.0479,0.035,0.0213,0.0109,-0.0005,-0.0048,-0.0013,-0.0025,-0.0088,-0.0087,-0.0106,-0.0106,-0.0106,-0.0106,-0.0106,0,0.0309,0.0332,0.0383,0.0416,0.0432,0.0482,0.0524,0.0546,0.0595,0.0656,0.07,0.0664,0.0643,0.046,0.0261,0.0075,0.0026,-0.0042,-0.0098,-0.0079,-0.0091,-0.0089,-0.0087,-0.0091,-0.009,-0.009,-0.009,0,0.0345,0.0359,0.0394,0.0461,0.0511,0.0579,0.0642,0.07,0.0749,0.081,0.0878,0.0867,0.0707,0.0521,0.0271,0.0136,-0.0014,-0.0045,-0.0037,-0.0091,-0.0065,-0.0077,-0.0075,-0.0089,-0.009,-0.009,-0.009,-0.009,0.0371,0.04,0.0446,0.0508,0.0576,0.0665,0.0727,0.081,0.0905,0.0989,0.0987,0.0965,0.0768,0.0438,0.023,0.0007,0.001,-0.0093,-0.0093,-0.0094,-0.0092,-0.0068,-0.009,-0.009,-0.009,-0.009,-0.0091,0,0.0407,0.0435,0.0493,0.0572,0.0651,0.0684,0.0803,0.0861,0.0978,0.1044,0.108,0.087,0.0684,0.0455,0.0133,-0.0058,-0.0087,-0.0128,-0.0129,-0.0127,-0.0127,-0.0128,-0.0135,-0.0136,-0.0137,-0.0137,0,0,0.0426,0.0476,0.0497,0.0613,0.0681,0.0787,0.0858,0.0941,0.1002,0.1037,0.1025,0.0996,0.0739,0.049,0.0234,0.0051,0.0002,0.001,0.0066,0.0098,0.01,-0.0085,-0.0083,0,0,0,0,0]}],[{"header":{"parameterUnit":"m.s-1","parameterCategory":2,"la1":30.2991,"la2":30.254,"lo1":-89.0895,"lo2":-89.0444,"dy":0.0017,"dx":0.0017,"nx":28,"ny":28,"refTime":"2025-01-04T09:00:00:Z","depth":"4","parameterNumber":2,"parameterNumberName":"U-component_of_CURRENTS"},"data":[0,0,0,0,0,0,0,0,0,0,0,0,0,0,0,0,0,0,0,0,0,0,0,0,0,0,0,0,0,0,0,0,0,0,0,0,0,0,0,0,0,0,0,0,0,0,0,0,0,0,0,0,0,0,0,0,0,0,0.1078,0.1079,0,0.1121,0.1122,0.1122,0.1158,0.1159,0.1159,0.116,0.1212,0.1212,0.1213,0,0,0,0,0,0,0,0,0,0,0,0,0,0.1006,0.1007,0.1078,0.1079,0.108,0.1121,0.1122,0.1122,0.1158,0.1159,0.116,0.116,0.1211,0.1212,0.1213,0,0,0,0,0,0,0,0,0,0,0,0,0,0.1041,0.1008,0.1078,0.1104,0.1107,0.1121,0.1122,0.1122,0.1158,0.1159,0.116,0.116,0.1211,0.1212,0.1214,0.1206,0,0,0.1218,0.1218,0,0,0,0,0,0,0,0,0.1039,0.1043,0.1099,0.1102,0.1105,0.1137,0.1115,0.1151,0.1158,0.1137,0.116,0.1161,0.1188,0.1191,0.1195,0.1208,0.121,0.1218,0.1218,0.1219,0.1219,0,0,0,0,0,0,0,0.1036,0.1042,0.1094,0.11,0.1104,0.1106,0.1112,0.1122,0.1156,0.1139,0.1142,0.1149,0.1189,0.1194,0.1197,0.1211,0.1218,0.1219,0.122,0.122,0.1279,0.128,0,0,0,0,0,0,0.1034,0.1039,0.1093,0.1095,0.1075,0.1107,0.1113,0.1125,0.1156,0.1162,0.1148,0.115,0.1191,0.1195,0.1199,0.1251,0.1219,0.122,0.1221,0.1278,0.1279,0.128,0,0,0,0,0,0,0.1033,0.1039,0.1091,0.1069,0.1076,0.1107,0.112,0.1125,0.1156,0.1163,0.1169,0.1177,0.1192,0.1197,0.1227,0.1251,0.1221,0.1222,0.1277,0.1278,0.128,0.1318,0,0,0,0,0,0,0.1031,0.1038,0.1057,0.1069,0.1077,0.1117,0.1119,0.1125,0.1158,0.1162,0.119,0.1194,0.1193,0.1225,0.1228,0.1252,0.1223,0.1276,0.1278,0.1279,0.1315,0.132,0.1324,0,0,0,0,0,0.1028,0.1045,0.1058,0.1065,0.1099,0.1117,0.1122,0.1145,0.1159,0.1176,0.1193,0.1194,0.1237,0.1227,0.123,0.1255,0.1276,0.1277,0.1279,0.1314,0.1319,0.1324,0,0,0,0,0,0,0.1023,0.1051,0.1065,0.1091,0.1113,0.1125,0.1146,0.116,0.1187,0.1199,0.1204,0.1209,0.1244,0.1243,0.1232,0.1276,0.1256,0.1259,0.1281,0.1287,0.1291,0.1287,0.1224,0,0,0,0,0,0.103,0.1056,0.1076,0.1101,0.1114,0.1136,0.1151,0.1168,0.1187,0.1201,0.1219,0.1237,0.1248,0.1264,0.1274,0.1299,0.1311,0.1317,0.1322,0.1325,0.1325,0.1362,0.137,0.1286,0.1286,0.1286,0,0,0.1035,0.1056,0.1071,0.1103,0.1123,0.1139,0.1148,0.118,0.1197,0.1202,0.124,0.1255,0.1258,0.1285,0.1301,0.1292,0.1358,0.1327,0.133,0.1328,0.1365,0.1373,0.138,0.1287,0.1287,0.1286,0,0,0.1045,0.1078,0.1098,0.1117,0.1154,0.1163,0.1178,0.1207,0.1228,0.1261,0.1266,0.1292,0.132,0.1322,0.1325,0.1357,0.1378,0.1374,0.1396,0.1433,0.144,0.1447,0.1485,0.1495,0.1377,0.1378,0.1378,0,0.1054,0.1076,0.1106,0.1127,0.1142,0.1175,0.119,0.1213,0.125,0.1266,0.1281,0.132,0.133,0.1346,0.1365,0.1366,0.14,0.1377,0.1439,0.1446,0.1452,0.1489,0.15,0.138,0.1379,0.1379,0.1379,0,0.1063,0.1093,0.1107,0.1142,0.1163,0.1186,0.1214,0.1248,0.128,0.1298,0.1339,0.1352,0.1377,0.1386,0.139,0.1436,0.1451,0.144,0.1427,0.1463,0.15,0.151,0.1383,0.1382,0.1381,0.1381,0,0,0.1053,0.1102,0.1111,0.113,0.1173,0.1189,0.1225,0.1257,0.1282,0.1328,0.1366,0.1386,0.1412,0.1416,0.1428,0.146,0.1538,0.1483,0.1484,0.1523,0.1642,0.1528,0.1528,0.1556,0.1557,0.1558,0.1656,0,0.1052,0.1079,0.1108,0.1143,0.1156,0.12,0.1228,0.1268,0.13,0.1352,0.1382,0.1425,0.1417,0.1451,0.1481,0.1539,0.1566,0.1514,0.16,0.1602,0.1497,0.1534,0.1563,0.1664,0.1666,0.1667,0.1669,0,0.1046,0.1065,0.1088,0.1141,0.1154,0.1186,0.1235,0.1268,0.1336,0.1367,0.1411,0.1452,0.1523,0.151,0.1603,0.1585,0.1615,0.1641,0.1645,0.1528,0.1505,0.1617,0.1686,0.1685,0.1684,0.1682,0.1681,0,0.1002,0.1056,0.1071,0.1087,0.1146,0.1182,0.1227,0.128,0.1316,0.1398,0.1447,0.1507,0.1586,0.1625,0.1688,0.1674,0.1788,0.1767,0.1676,0.1669,0.1728,0.1719,0.1807,0.1807,0.1807,0.1806,0.1806,0,0.0973,0.0998,0.1063,0.107,0.1114,0.1171,0.122,0.1267,0.1346,0.1391,0.1469,0.151,0.1628,0.1704,0.1724,0.1738,0.1817,0.1684,0.1684,0.1743,0.1735,0.1736,0.1726,0.181,0.1809,0.1809,0.1808,0,0.0928,0.0963,0.0995,0.1063,0.1094,0.1135,0.1233,0.1262,0.1348,0.1418,0.1465,0.1579,0.1671,0.1746,0.1837,0.1787,0.1802,0.1773,0.185,0.1852,0.1653,0.1645,0.1693,0.169,0.1687,0.1685,0.1683,0,0.0904,0.0908,0.0984,0.1007,0.1049,0.1117,0.1158,0.1253,0.1284,0.1423,0.1456,0.1596,0.1653,0.1696,0.1768,0.1799,0.1762,0.1765,0.1679,0.1645,0.1641,0.1637,0.1632,0.1678,0.1677,0.1677,0.1676,0,0.0854,0.089,0.0915,0.0957,0.1009,0.1052,0.1127,0.1144,0.1253,0.1356,0.1409,0.1462,0.1563,0.1625,0.1673,0.1674,0.1766,0.1736,0.174,0.166,0.1628,0.1625,0.1624,0.1666,0.1668,0.1669,0.1669,0,0.0828,0.0833,0.0864,0.0903,0.0954,0.097,0.1017,0.1067,0.112,0.1276,0.1288,0.1417,0.154,0.1559,0.1587,0.1604,0.1571,0.151,0.1526,0.1537,0.1438,0.1372,0.1335,0,0,0,0,0,0.0794,0.0785,0.0804,0.0828,0.0873,0.0909,0.0983,0.103,0.1143,0.1147,0.1212,0.1282,0.1347,0.1409,0.1397,0.1518,0.1578,0.1496,0.1514,0.1613,0.1624,0.152,0,0,0,0,0,0,0.0764,0.0777,0.0777,0.0758,0.0766,0.0804,0.0852,0.0928,0.093,0.1056,0.1099,0.1202,0.1286,0.1348,0.1374,0.1395,0.1377,0.1579,0.1575,0.1606,0.1616,0.1625,0.1522,0,0,0,0,0]},{"header":{"parameterUnit":"m.s-1","parameterCategory":2,"la1":30.2991,"la2":30.254,"lo1":-89.0895,"lo2":-89.0444,"dy":0.0017,"dx":0.0017,"nx":28,"ny":28,"refTime":"2025-01-04T09:00:00:Z","depth":"4","parameterNumber":3,"parameterNumberName":"V-component_of_CURRENTS"},"data":[0,0,0,0,0,0,0,0,0,0,0,0,0,0,0,0,0,0,0,0,0,0,0,0,0,0,0,0,0,0,0,0,0,0,0,0,0,0,0,0,0,0,0,0,0,0,0,0,0,0,0,0,0,0,0,0,0,0,-0.0073,-0.0073,0,-0.0111,-0.0111,-0.0112,-0.0138,-0.0138,-0.0138,-0.0138,-0.0192,-0.0194,-0.0195,0,0,0,0,0,0,0,0,0,0,0,0,0,-0.0048,-0.0048,-0.0073,-0.0073,-0.0073,-0.0111,-0.0111,-0.0112,-0.0138,-0.0138,-0.0138,-0.0138,-0.0192,-0.0194,-0.0195,0,0,0,0,0,0,0,0,0,0,0,0,0,-0.007,-0.0048,-0.0073,-0.009,-0.0092,-0.0111,-0.0112,-0.0112,-0.0138,-0.0138,-0.0138,-0.0138,-0.0191,-0.0193,-0.0195,-0.0206,0,0,-0.0202,-0.0203,0,0,0,0,0,0,0,0,-0.0069,-0.0072,-0.0087,-0.0089,-0.0091,-0.0119,-0.0123,-0.0144,-0.0138,-0.0122,-0.0138,-0.0138,-0.0168,-0.0172,-0.0181,-0.0208,-0.0211,-0.0202,-0.0203,-0.0204,-0.0205,0,0,0,0,0,0,0,-0.0067,-0.007,-0.0089,-0.0087,-0.009,-0.0105,-0.0108,-0.0127,-0.0145,-0.0123,-0.0125,-0.0127,-0.017,-0.0179,-0.0182,-0.0211,-0.0202,-0.0204,-0.0205,-0.0206,-0.0246,-0.0245,0,0,0,0,0,0,-0.0059,-0.0068,-0.0088,-0.009,-0.0079,-0.0105,-0.0108,-0.0111,-0.0145,-0.0149,-0.0127,-0.0128,-0.0175,-0.018,-0.0184,-0.0184,-0.0204,-0.0206,-0.0207,-0.0246,-0.0246,-0.0245,0,0,0,0,0,0,-0.0058,-0.006,-0.0086,-0.0079,-0.0083,-0.0105,-0.0107,-0.0111,-0.0121,-0.0147,-0.0153,-0.0132,-0.0175,-0.0181,-0.0201,-0.0187,-0.0207,-0.0209,-0.0246,-0.0246,-0.0245,-0.0192,0,0,0,0,0,0,-0.0057,-0.006,-0.0061,-0.0079,-0.0083,-0.0094,-0.0107,-0.0112,-0.0122,-0.0124,-0.0154,-0.0159,-0.0176,-0.0197,-0.0203,-0.019,-0.021,-0.0246,-0.0246,-0.0246,-0.0194,-0.019,-0.0187,0,0,0,0,0,-0.0056,-0.0055,-0.006,-0.0063,-0.0083,-0.0094,-0.0098,-0.0114,-0.0122,-0.0124,-0.0145,-0.0158,-0.0199,-0.0199,-0.0205,-0.0193,-0.0246,-0.0246,-0.0246,-0.0196,-0.0191,-0.0187,0,0,0,0,0,0,-0.0046,-0.0058,-0.0064,-0.0067,-0.0078,-0.0098,-0.0102,-0.0113,-0.0132,-0.0134,-0.016,-0.0166,-0.0177,-0.0196,-0.0195,-0.0204,-0.0223,-0.0224,-0.0183,-0.0179,-0.0175,-0.0153,-0.0212,0,0,0,0,0,-0.0043,-0.0045,-0.0059,-0.0061,-0.0065,-0.0083,-0.009,-0.01,-0.0118,-0.0126,-0.0145,-0.0166,-0.018,-0.0188,-0.0207,-0.0214,-0.0226,-0.021,-0.0206,-0.0203,-0.019,-0.0189,-0.0183,-0.0244,-0.0244,-0.0244,0,0,-0.0041,-0.0047,-0.0049,-0.0059,-0.0069,-0.0066,-0.0088,-0.0096,-0.0091,-0.0129,-0.0133,-0.0156,-0.0181,-0.0187,-0.0192,-0.02,-0.0197,-0.0202,-0.0199,-0.0187,-0.0188,-0.0182,-0.0176,-0.0244,-0.0244,-0.0244,0,0,-0.0032,-0.0041,-0.0037,-0.0041,-0.005,-0.0058,-0.0058,-0.0075,-0.0081,-0.0091,-0.0112,-0.0122,-0.0154,-0.0157,-0.0166,-0.0153,-0.0179,-0.0167,-0.0126,-0.0126,-0.012,-0.0115,-0.0139,-0.0137,-0.0162,-0.0161,-0.0161,0,-0.0028,-0.0023,-0.0038,-0.0031,-0.0028,-0.0049,-0.0038,-0.0047,-0.0067,-0.0064,-0.0085,-0.0107,-0.0133,-0.012,-0.0121,-0.0141,-0.0158,-0.0139,-0.0119,-0.0114,-0.011,-0.0136,-0.0134,-0.0159,-0.0159,-0.0159,-0.016,0,-0.0014,-0.0008,-0.0005,0.0001,0.0002,0.0006,-0.0,0.0,-0.0011,-0.0019,-0.0017,-0.0047,-0.0057,-0.0067,-0.0095,-0.0075,-0.0105,-0.0115,-0.0125,-0.01,-0.013,-0.0129,-0.0155,-0.0156,-0.0157,-0.0157,0,0,-0.0008,0.0004,0.0005,0.0022,0.0022,0.0029,0.0042,0.0052,0.0069,0.0048,0.0069,0.0043,0.0025,0.0014,-0.0013,-0.0012,-0.0014,-0.0053,-0.0054,-0.0068,-0.0034,-0.0054,-0.0055,-0.0023,-0.0022,-0.0022,-0.0071,0,0.001,0.0034,0.0036,0.0068,0.0083,0.0082,0.0102,0.0108,0.0104,0.0116,0.01,0.0098,0.0056,0.005,0.0046,-0.0,-0.0006,-0.0,-0.0063,-0.0065,-0.0077,-0.0052,-0.0019,-0.0071,-0.0071,-0.0071,-0.007,0,0.0025,0.0043,0.0074,0.0115,0.0123,0.014,0.0177,0.019,0.0201,0.0197,0.0199,0.0172,0.0164,0.0126,0.008,0.0081,0.0029,-0.0004,-0.0007,-0.0038,-0.0081,-0.0098,-0.0069,-0.0069,-0.0069,-0.0069,-0.0069,0,0.0039,0.0074,0.0104,0.0114,0.015,0.0174,0.0194,0.0214,0.0237,0.0247,0.026,0.0241,0.0232,0.018,0.0091,0.0083,0.0036,0.0017,-0.0044,-0.0048,-0.004,-0.0044,-0.0002,-0.0002,-0.0002,-0.0002,-0.0001,0,0.0057,0.0084,0.0115,0.0131,0.0183,0.0198,0.025,0.0265,0.0295,0.0329,0.03,0.0316,0.0245,0.02,0.0117,0.0035,0.0052,-0.0028,-0.0051,-0.0021,-0.0022,-0.004,-0.0044,-0.0004,-0.0003,-0.0003,-0.0002,0,0.0067,0.0082,0.0123,0.0168,0.0188,0.0223,0.0284,0.0321,0.0341,0.0386,0.039,0.0371,0.0312,0.023,0.0141,0.0072,-0.0008,-0.0043,-0.0016,-0.0039,-0.0102,-0.0103,-0.0107,-0.0108,-0.0108,-0.0109,-0.011,0,0.0074,0.0092,0.0146,0.0175,0.0197,0.0252,0.0294,0.0336,0.0376,0.0416,0.044,0.0403,0.0374,0.0239,0.0142,-0.0002,-0.0026,-0.0076,-0.0072,-0.0085,-0.0107,-0.0107,-0.0107,-0.0111,-0.0111,-0.0111,-0.0111,0,0.0088,0.0102,0.0133,0.0189,0.0237,0.0298,0.0358,0.0393,0.0445,0.0469,0.048,0.0416,0.0355,0.0242,0.013,0.0024,-0.0045,-0.0084,-0.0083,-0.008,-0.009,-0.0111,-0.011,-0.0114,-0.0114,-0.0113,-0.0113,0,0.0096,0.0114,0.0149,0.0202,0.0261,0.0322,0.0361,0.0413,0.0455,0.0502,0.0499,0.0436,0.0404,0.0256,0.015,0.0047,0.0021,-0.0021,-0.0024,-0.0022,0.0015,0.0015,0.0016,0,0,0,0,0,0.0102,0.0117,0.0162,0.0217,0.0276,0.0311,0.0395,0.0432,0.0487,0.0499,0.0502,0.0442,0.0308,0.0253,0.0149,0.0122,-0.0009,-0.0007,-0.0062,-0.0128,-0.0125,-0.0098,0,0,0,0,0,0,0.0102,0.0134,0.0154,0.0218,0.0255,0.0325,0.0377,0.042,0.0433,0.047,0.0404,0.0393,0.0263,0.0357,0.0136,0.0108,0.0054,-0.0061,-0.0064,-0.013,-0.0127,-0.0125,-0.0095,0,0,0,0,0]}]]